Tracking 17925 objects as of 21-January-2017
HD Live streaming from Space Station
objects crossing your sky now

COSMOS 2251 DEB

Track COSMOS 2251 DEB now!
10-day predictions


NORAD ID: 34447
Int'l Code: 1993-036SQ
Perigee: 627.5 km
Apogee: 665.5 km
Inclination: 74.0 °
Period: 97.5 minutes
Semi major axis: 7017 km
RCS: 0.038 m2 (small)
Launch date: June 16, 1993
Source: Commonwealth of Independent States (former USSR) (CIS)
Launch site: PLESETSK MISSILE AND SPACE COMPLEX (PKMTR)

Note: This is SATELLITE DEBRIS
Your satellite tracking list
Your tracking list is empty





NASA's NSSDC Master Catalog

Two Line Element Set (TLE):
1 34447U 93036SQ  17020.19129963  .00001487  00000-0  21549-3 0  9997
2 34447  74.0273 286.6890 0027064 150.1216   1.9086 14.76817314419944
Source of the keplerian elements: AFSPC